カタログに戻る

THORAD DELTA 1 DEB

運用中SSO
NORAD 8146·DEBRIS·🇺🇸 United States

打ち上げ Nov 15, 1974 から Vandenberg Space Force Base

Loading…

次のパス (今後24時間)

TLE

最新Source: Space-Track

元期: Sep 14, 2026, 12:32 UTC

1 08146U 74089Q   26257.52238947 -.00000002  00000-0  26365-3 0  9997
2 08146 102.0127 257.0962 0185758 332.7147 179.2555 12.54939196372326

AllMySatでTHORAD DELTA 1 DEBをリアルタイム追跡

Download on the App Store